CW2014 Weather Reports


time (UTC)temp
F
wind
direction
speed
knots
gust
knots
rain 1hr
in
rain 24hr
in
rain mn
in
humidity
%
barometer
mb
20260507182024 87 34 1.7 4.3 0.00 0.00 0.00 13 1010.8
20260507181537 87 360 1.7 4.3 0.00 0.00 0.00 14 1010.9
20260507181028 87 110 0.9 5.2 0.00 0.00 0.00 14 1010.8
20260507180525 86 74 0.9 5.2 0.00 0.00 0.00 14 1010.9
20260507180040 87 46 1.7 5.2 0.00 0.00 0.00 14 1011.0
20260507175528 87 297 0.9 5.2 0.00 0.00 0.00 14 1011.0
20260507175027 87 178 0.9 5.2 0.00 0.00 0.00 14 1011.0
20260507174549 86 0 0.9 3.5 0.00 0.00 0.00 16 1011.1
20260507174024 86 344 0.0 3.5 0.00 0.00 0.00 16 1011.1
20260507173524 86 309 0.9 4.3 0.00 0.00 0.00 16 1011.2
20260507173113 86 225 0.9 5.2 0.00 0.00 0.00 16 1011.3
20260507172524 85 207 1.7 5.2 0.00 0.00 0.00 17 1011.3
20260507172024 85 143 0.9 3.5 0.00 0.00 0.00 18 1011.2
20260507171547 85 203 0.9 5.2 0.00 0.00 0.00 18 1011.3
20260507171025 84 298 0.0 6.1 0.00 0.00 0.00 19 1011.3
20260507170525 84 360 0.9 6.1 0.00 0.00 0.00 19 1011.4
20260507170041 84 295 0.9 4.3 0.00 0.00 0.00 19 1011.5
20260507165524 84 108 0.0 3.5 0.00 0.00 0.00 19 1011.4
20260507165024 83 0 0.9 3.5 0.00 0.00 0.00 19 1011.6
20260507164548 83 156 0.0 2.6 0.00 0.00 0.00 21 1011.5
20260507164025 82 317 0.0 3.5 0.00 0.00 0.00 21 1011.6
20260507163524 82 147 0.9 4.3 0.00 0.00 0.00 23 1011.6
20260507163038 81 0 0.0 4.3 0.00 0.00 0.00 24 1011.6
20260507162524 80 204 0.9 4.3 0.00 0.00 0.00 24 1011.7
20260507162025 80 188 0.0 2.6 0.00 0.00 0.00 25 1011.7
20260507161553 80 0 0.0 2.6 0.00 0.00 0.00 25 1011.9
20260507161024 79 0 0.0 1.7 0.00 0.00 0.00 26 1012.0
20260507160524 79 278 0.0 1.7 0.00 0.00 0.00 26 1012.0
20260507160041 78 0 0.0 1.7 0.00 0.00 0.00 27 1012.0
20260507155525 78 197 0.0 2.6 0.00 0.00 0.00 27 1012.0
20260507155025 77 168 0.0 3.5 0.00 0.00 0.00 27 1012.0
20260507154542 77 0 0.9 3.5 0.00 0.00 0.00 29 1012.0
20260507154027 76 137 0.0 3.5 0.00 0.00 0.00 30 1012.1
20260507153525 76 0 0.0 3.5 0.00 0.00 0.00 30 1012.0
20260507153041 75 74 0.9 3.5 0.00 0.00 0.00 30 1012.1
20260507152526 74 169 0.0 3.5 0.00 0.00 0.00 31 1012.1
20260507152025 73 152 0.9 5.2 0.00 0.00 0.00 31 1012.1
20260507151539 73 139 0.9 5.2 0.00 0.00 0.00 32 1012.1
20260507151024 72 0 0.9 4.3 0.00 0.00 0.00 32 1012.2
20260507150524 72 171 0.0 4.3 0.00 0.00 0.00 33 1012.2
20260507150047 71 105 0.0 5.2 0.00 0.00 0.00 34 1012.1
20260507145523 70 174 1.7 5.2 0.00 0.00 0.00 34 1012.1
20260507145024 70 175 0.9 7.0 0.00 0.00 0.00 35 1012.2
20260507144546 69 141 1.7 7.0 0.00 0.00 0.00 35 1012.1
20260507144024 69 148 1.7 6.1 0.00 0.00 0.00 35 1012.2
20260507143525 69 148 1.7 6.1 0.00 0.00 0.00 36 1012.2
20260507143039 68 156 0.9 5.2 0.00 0.00 0.00 38 1012.2
20260507142524 68 80 0.9 5.2 0.00 0.00 0.00 39 1012.2
20260507142024 67 140 0.9 4.3 0.00 0.00 0.00 40 1012.2
20260507141536 67 112 1.7 4.3 0.00 0.00 0.00 40 1012.2
20260507141024 67 88 0.9 3.5 0.00 0.00 0.00 42 1012.2
20260507140524 67 87 0.9 2.6 0.00 0.00 0.00 44 1012.2
20260507140043 66 0 0.0 2.6 0.00 0.00 0.00 45 1012.1
20260507135522 66 90 0.0 2.6 0.00 0.00 0.00 46 1012.1
20260507135023 65 118 0.0 2.6 0.00 0.00 0.00 46 1012.0
20260507134540 65 153 0.0 2.6 0.00 0.00 0.00 48 1011.8
20260507134024 64 0 0.0 2.6 0.00 0.00 0.00 49 1011.8
20260507133525 63 0 0.0 2.6 0.00 0.00 0.00 49 1011.6
20260507133037 63 136 0.0 1.7 0.00 0.00 0.00 51 1011.6
20260507132527 62 0 0.0 0.9 0.00 0.00 0.00 52 1011.5
20260507132024 61 0 0.0 0.9 0.00 0.00 0.00 53 1011.4
20260507131540 61 0 0.0 0.9 0.00 0.00 0.00 53 1011.3
20260507131025 60 0 0.0 0.9 0.00 0.00 0.00 53 1011.3
20260507130526 60 0 0.0 2.6 0.00 0.00 0.00 53 1011.3
20260507130036 60 147 0.9 2.6 0.00 0.00 0.00 53 1011.3
20260507125524 60 147 0.9 1.7 0.00 0.00 0.00 54 1011.3
20260507125024 60 0 0.9 1.7 0.00 0.00 0.00 53 1011.2
20260507124535 60 0 0.0 1.7 0.00 0.00 0.00 53 1011.2
20260507124024 60 147 0.9 1.7 0.00 0.00 0.00 53 1011.2
20260507123524 60 147 0.0 4.3 0.00 0.00 0.00 53 1011.2
20260507123042 60 147 0.9 5.2 0.00 0.00 0.00 53 1011.2
20260507122523 60 150 1.7 5.2 0.00 0.00 0.00 53 1011.3
20260507122024 60 153 2.6 5.2 0.00 0.00 0.00 53 1011.3
20260507121542 60 106 0.0 1.7 0.00 0.00 0.00 53 1011.1
20260507121024 61 0 0.0 1.7 0.00 0.00 0.00 53 1011.1
20260507120524 61 0 0.0 2.6 0.00 0.00 0.00 52 1011.1
20260507120043 61 106 0.9 2.6 0.00 0.00 0.00 51 1011.1
20260507115524 61 0 0.0 0.0 0.00 0.00 0.00 53 1011.2
20260507115021 61 0 0.0 1.7 0.00 0.00 0.00 53 1011.1
20260507114544 61 0 0.0 1.7 0.00 0.00 0.00 53 1011.1
20260507114025 61 0 0.9 1.7 0.00 0.00 0.00 53 1011.1
20260507113524 61 106 0.0 2.6 0.00 0.00 0.00 52 1011.1
20260507113047 61 0 0.0 2.6 0.00 0.00 0.00 53 1011.2
20260507112525 61 106 0.9 1.7 0.00 0.00 0.00 54 1011.2
20260507112025 61 106 0.9 1.7 0.00 0.00 0.00 55 1011.2
20260507111539 61 106 0.0 1.7 0.00 0.00 0.00 54 1011.2
20260507111024 61 0 0.0 0.0 0.00 0.00 0.00 54 1011.2
20260507110526 61 0 0.0 0.0 0.00 0.00 0.00 55 1011.2
20260507110039 61 0 0.0 0.0 0.00 0.00 0.00 54 1011.2
20260507105524 61 0 0.0 0.0 0.00 0.00 0.00 54 1011.2
20260507105024 61 0 0.0 0.0 0.00 0.00 0.00 53 1011.3
20260507104540 61 0 0.0 0.0 0.00 0.00 0.00 53 1011.3
20260507104025 62 0 0.0 0.0 0.00 0.00 0.00 53 1011.4
20260507103524 62 0 0.0 1.7 0.00 0.00 0.00 54 1011.4
20260507103036 62 0 0.0 1.7 0.00 0.00 0.00 54 1011.4
20260507102524 62 0 0.0 1.7 0.00 0.00 0.00 53 1011.5
20260507102024 62 0 0.0 0.9 0.00 0.00 0.00 51 1011.4
20260507101542 62 0 0.0 0.9 0.00 0.00 0.00 51 1011.4
20260507101024 62 0 0.0 0.0 0.00 0.00 0.00 50 1011.6
20260507100524 63 0 0.0 0.9 0.00 0.00 0.00 49 1011.5
20260507100042 63 0 0.0 0.9 0.00 0.00 0.00 48 1011.7
20260507095525 62 0 0.0 0.9 0.00 0.00 0.00 47 1011.7
20260507095024 62 106 0.0 0.9 0.00 0.00 0.00 48 1011.7
20260507094539 62 0 0.0 0.9 0.00 0.00 0.00 50 1011.8
20260507094024 62 0 0.0 0.9 0.00 0.00 0.00 50 1011.8
20260507093527 63 0 0.0 0.9 0.00 0.00 0.00 48 1011.8
20260507093039 63 0 0.0 0.9 0.00 0.00 0.00 48 1011.9
20260507092524 63 0 0.0 0.9 0.00 0.00 0.00 48 1011.9
20260507092027 63 0 0.0 0.9 0.00 0.00 0.00 47 1011.9
20260507091546 63 0 0.0 2.6 0.00 0.00 0.00 47 1012.0
20260507091025 63 0 0.0 2.6 0.00 0.00 0.00 47 1012.0
20260507090523 64 106 0.9 2.6 0.00 0.00 0.00 46 1012.0
20260507090045 64 0 0.0 1.7 0.00 0.00 0.00 45 1012.1
20260507085524 64 0 0.0 1.7 0.00 0.00 0.00 44 1012.1
20260507085023 65 0 0.0 1.7 0.00 0.00 0.00 43 1012.2
20260507084539 65 0 0.0 1.7 0.00 0.00 0.00 43 1012.2
20260507084024 65 22 0.0 1.7 0.00 0.00 0.00 42 1012.2
20260507083524 65 22 0.0 2.6 0.00 0.00 0.00 42 1012.2
20260507083039 66 22 0.0 2.6 0.00 0.00 0.00 42 1012.2
20260507082524 66 22 1.7 2.6 0.00 0.00 0.00 41 1012.3
20260507082024 66 5 0.0 1.7 0.00 0.00 0.00 41 1012.3
20260507081544 66 0 0.0 0.9 0.00 0.00 0.00 41 1012.3
20260507081026 66 0 0.0 0.9 0.00 0.00 0.00 40 1012.3
20260507080524 67 0 0.0 1.7 0.00 0.00 0.00 40 1012.3
20260507080043 67 0 0.0 1.7 0.00 0.00 0.00 40 1012.4
20260507075525 67 5 0.9 2.6 0.00 0.00 0.00 40 1012.4
20260507075024 66 0 0.0 2.6 0.00 0.00 0.00 41 1012.4
20260507074541 66 5 0.9 2.6 0.00 0.00 0.00 42 1012.4
20260507074026 66 5 0.0 2.6 0.00 0.00 0.00 42 1012.5
20260507073525 67 0 0.0 0.0 0.00 0.00 0.00 42 1012.4
20260507073046 67 0 0.0 0.0 0.00 0.00 0.00 42 1012.4
20260507072525 67 0 0.0 0.0 0.00 0.00 0.00 42 1012.4
20260507072027 67 0 0.0 0.0 0.00 0.00 0.00 43 1012.4
20260507071539 67 0 0.0 0.0 0.00 0.00 0.00 42 1012.5
20260507071024 67 0 0.0 0.0 0.00 0.00 0.00 43 1012.5
20260507070525 67 0 0.0 0.0 0.00 0.00 0.00 42 1012.5
20260507070042 67 0 0.0 0.0 0.00 0.00 0.00 42 1012.5
20260507065525 67 0 0.0 0.0 0.00 0.00 0.00 42 1012.4
20260507065024 67 0 0.0 0.0 0.00 0.00 0.00 41 1012.4
20260507064552 68 0 0.0 0.0 0.00 0.00 0.00 40 1012.4
20260507064024 68 0 0.0 0.0 0.00 0.00 0.00 40 1012.4
20260507063524 68 0 0.0 0.0 0.00 0.00 0.00 40 1012.3
20260507063047 68 0 0.0 0.0 0.00 0.00 0.00 40 1012.3
20260507062528 68 0 0.0 0.0 0.00 0.00 0.00 40 1012.2
20260507062024 68 0 0.0 0.0 0.00 0.00 0.00 39 1012.3
20260507061541 69 0 0.0 0.0 0.00 0.00 0.00 40 1012.3
20260507061024 69 0 0.0 0.0 0.00 0.00 0.00 40 1012.3
20260507060524 69 0 0.0 0.0 0.00 0.00 0.00 39 1012.3
20260507060039 69 0 0.0 0.0 0.00 0.00 0.00 38 1012.3
20260507055525 69 0 0.0 0.0 0.00 0.00 0.00 38 1012.3
20260507055024 70 0 0.0 0.0 0.00 0.00 0.00 38 1012.3
20260507054539 70 0 0.0 0.0 0.00 0.00 0.00 38 1012.2
20260507054024 70 0 0.0 0.0 0.00 0.00 0.00 38 1012.2
20260507053524 70 0 0.0 0.0 0.00 0.00 0.00 38 1012.3
20260507053045 70 0 0.0 0.0 0.00 0.00 0.00 37 1012.2
20260507052524 70 0 0.0 0.0 0.00 0.00 0.00 36 1012.2
20260507052026 71 0 0.0 0.0 0.00 0.00 0.00 36 1012.2
20260507051540 71 0 0.0 0.0 0.00 0.00 0.00 36 1012.3
20260507051026 71 0 0.0 0.0 0.00 0.00 0.00 35 1012.2
20260507050524 72 0 0.0 0.9 0.00 0.00 0.00 35 1012.2
20260507050041 72 0 0.0 0.9 0.00 0.00 0.00 34 1012.1
20260507045524 72 0 0.0 0.9 0.00 0.00 0.00 34 1012.1
20260507045024 72 0 0.0 0.0 0.00 0.00 0.00 34 1012.0
20260507044540 73 0 0.0 0.0 0.00 0.00 0.00 33 1012.0
20260507044023 73 0 0.0 0.9 0.00 0.00 0.00 32 1012.0
20260507043525 73 0 0.0 0.9 0.00 0.00 0.00 32 1012.0
20260507043041 73 0 0.0 0.9 0.00 0.00 0.00 31 1011.9
20260507042524 74 0 0.0 1.7 0.00 0.00 0.00 30 1011.9
20260507042024 74 0 0.0 1.7 0.00 0.00 0.00 30 1011.9
20260507041545 75 0 0.0 0.9 0.00 0.00 0.00 30 1011.9
20260507041025 75 0 0.0 0.9 0.00 0.00 0.00 29 1011.8
20260507040523 75 0 0.0 1.7 0.00 0.00 0.00 28 1011.8
20260507040042 75 0 0.0 1.7 0.00 0.00 0.00 28 1011.6
20260507035526 76 0 0.0 1.7 0.00 0.00 0.00 28 1011.7
20260507035024 76 0 0.0 1.7 0.00 0.00 0.00 27 1011.6
20260507034544 76 225 0.0 1.7 0.00 0.00 0.00 26 1011.5
20260507034024 76 225 0.0 1.7 0.00 0.00 0.00 26 1011.5
20260507033525 76 0 0.0 1.7 0.00 0.00 0.00 26 1011.4
20260507033057 77 225 0.0 0.9 0.00 0.00 0.00 26 1011.4
20260507032524 77 0 0.0 0.9 0.00 0.00 0.00 26 1011.4
20260507032024 77 0 0.0 1.7 0.00 0.00 0.00 25 1011.3
20260507031539 77 0 0.0 1.7 0.00 0.00 0.00 25 1011.3
20260507031024 77 225 0.0 1.7 0.00 0.00 0.00 25 1011.2
20260507030525 78 225 0.0 2.6 0.00 0.00 0.00 25 1011.1
20260507030040 78 0 0.0 2.6 0.00 0.00 0.00 24 1011.1
20260507025524 78 265 0.0 2.6 0.00 0.00 0.00 24 1011.1
20260507025024 78 265 0.9 3.5 0.00 0.00 0.00 24 1011.1
20260507024553 78 275 0.9 3.5 0.00 0.00 0.00 23 1010.9
20260507024024 79 250 1.7 3.5 0.00 0.00 0.00 23 1010.8
20260507023524 79 246 0.9 2.6 0.00 0.00 0.00 23 1010.8
20260507023040 79 241 0.9 2.6 0.00 0.00 0.00 22 1010.9
20260507022524 80 217 0.9 2.6 0.00 0.00 0.00 22 1010.7
20260507022024 80 0 0.0 2.6 0.00 0.00 0.00 22 1010.6
20260507021540 80 0 0.9 3.5 0.00 0.00 0.00 22 1010.6
20260507021025 80 286 0.0 3.5 0.00 0.00 0.00 22 1010.6
20260507020525 81 300 0.9 3.5 0.00 0.00 0.00 21 1010.5
20260507020039 81 291 0.9 3.5 0.00 0.00 0.00 21 1010.5
20260507015524 81 274 1.7 3.5 0.00 0.00 0.00 21 1010.4
20260507015026 81 223 1.7 7.0 0.00 0.00 0.00 20 1010.4
20260507014543 81 277 0.9 7.0 0.00 0.00 0.00 21 1010.4
20260507014024 82 305 2.6 6.1 0.00 0.00 0.00 21 1010.4
20260507013524 82 292 0.9 6.1 0.00 0.00 0.00 21 1010.5
20260507013041 82 263 1.7 6.1 0.00 0.00 0.00 20 1010.5
20260507012525 82 267 1.7 5.2 0.00 0.00 0.00 20 1010.4
20260507012025 83 330 1.7 5.2 0.00 0.00 0.00 20 1010.4
20260507011540 83 288 0.9 5.2 0.00 0.00 0.00 20 1010.5
20260507011024 83 300 1.7 6.1 0.00 0.00 0.00 20 1010.4
20260507010528 82 294 1.7 6.1 0.00 0.00 0.00 20 1010.4
20260507010041 82 311 2.6 7.0 0.00 0.00 0.00 20 1010.3
20260507005525 82 251 1.7 7.0 0.00 0.00 0.00 20 1010.4
20260507005024 82 287 0.9 5.2 0.00 0.00 0.00 20 1010.3
20260507004538 82 0 0.9 5.2 0.00 0.00 0.00 20 1010.3
20260507004024 82 329 1.7 7.0 0.00 0.00 0.00 20 1010.4
20260507003526 82 290 1.7 7.0 0.00 0.00 0.00 20 1010.4
20260507003038 82 246 2.6 7.0 0.00 0.00 0.00 20 1010.6
20260507002522 82 215 1.7 7.8 0.00 0.00 0.00 20 1010.3
20260507002025 83 237 3.5 7.8 0.00 0.00 0.00 19 1010.4
20260507001603 83 0 2.6 7.8 0.00 0.00 0.00 20 1010.3
20260507001024 83 228 1.7 6.1 0.00 0.00 0.00 20 1010.4
20260507000524 82 184 0.9 7.0 0.00 0.00 0.00 20 1010.4
20260507000038 82 0 1.7 7.0 0.00 0.00 0.00 20 1010.4
20260506235526 83 271 3.5 7.0 0.00 0.00 0.00 20 1010.5
20260506235028 82 332 1.7 6.1 0.00 0.00 0.00 20 1010.5
20260506234547 83 351 1.7 8.7 0.00 0.00 0.00 19 1010.4
20260506234025 83 319 1.7 8.7 0.00 0.00 0.00 19 1010.5
20260506233524 83 332 4.3 8.7 0.00 0.00 0.00 19 1010.5
20260506233039 84 215 1.7 7.0 0.00 0.00 0.00 19 1010.4
20260506232523 83 266 0.9 7.0 0.00 0.00 0.00 20 1010.4
20260506232027 83 301 1.7 7.0 0.00 0.00 0.00 20 1010.5
20260506231539 83 288 2.6 7.0 0.00 0.00 0.00 20 1010.6
20260506231025 83 270 0.9 7.8 0.00 0.00 0.00 19 1010.7
20260506230524 84 296 1.7 7.8 0.00 0.00 0.00 19 1010.8
20260506230040 83 284 1.7 7.8 0.00 0.00 0.00 19 1010.8
20260506225524 83 164 0.0 7.0 0.00 0.00 0.00 20 1010.9
20260506225024 83 211 1.7 7.0 0.00 0.00 0.00 20 1011.1
20260506224542 83 273 2.6 7.0 0.00 0.00 0.00 20 1011.0
20260506224021 82 231 0.0 8.7 0.00 0.00 0.00 20 1011.0
20260506223524 82 348 0.9 8.7 0.00 0.00 0.00 21 1011.1
20260506223035 82 299 4.3 9.6 0.00 0.00 0.00 21 1011.2
20260506222524 82 0 2.6 9.6 0.00 0.00 0.00 21 1011.2
20260506222023 82 352 0.9 7.0 0.00 0.00 0.00 21 1011.3
20260506221542 81 60 1.7 7.0 0.00 0.00 0.00 21 1011.2
20260506221026 81 68 3.5 7.0 0.00 0.00 0.00 21 1011.3
20260506220525 81 54 2.6 7.8 0.00 0.00 0.00 21 1011.4
20260506220048 81 323 2.6 9.6 0.00 0.00 0.00 21 1011.5
20260506215523 82 15 3.5 9.6 0.00 0.00 0.00 21 1011.6
20260506215025 82 327 3.5 9.6 0.00 0.00 0.00 21 1011.6
20260506214539 82 315 3.5 9.6 0.00 0.00 0.00 20 1011.7
20260506214028 83 194 2.6 7.0 0.00 0.00 0.00 21 1011.8
20260506213525 82 221 0.0 7.8 0.00 0.00 0.00 21 1011.9
20260506213038 82 0 0.9 8.7 0.00 0.00 0.00 21 1012.0
20260506212527 81 279 2.6 8.7 0.00 0.00 0.00 21 1012.1
20260506212024 81 44 2.6 8.7 0.00 0.00 0.00 22 1012.1
20260506211552 81 352 1.7 7.8 0.00 0.00 0.00 22 1012.1
20260506211024 80 65 3.5 9.6 0.00 0.00 0.00 22 1012.2
20260506210524 80 44 2.6 9.6 0.00 0.00 0.00 21 1012.3
20260506210043 80 0 2.6 8.7 0.00 0.00 0.00 22 1012.4
20260506205524 80 327 2.6 12.2 0.00 0.00 0.00 22 1012.4
20260506205024 81 320 5.2 12.2 0.00 0.00 0.00 22 1012.5
20260506204542 81 333 2.6 7.8 0.00 0.00 0.00 23 1012.6
20260506204023 81 90 0.9 7.8 0.00 0.00 0.00 23 1012.5
20260506203524 81 37 1.7 8.7 0.00 0.00 0.00 22 1012.7
20260506203041 81 298 2.6 9.6 0.00 0.00 0.00 22 1012.7
20260506202525 80 258 3.5 9.6 0.00 0.00 0.00 23 1012.7
20260506202025 80 352 2.6 9.6 0.00 0.00 0.00 23 1012.9
20260506201537 79 274 1.7 7.8 0.00 0.00 0.00 24 1012.8
20260506201025 79 348 3.5 7.8 0.00 0.00 0.00 24 1012.9
20260506200524 81 56 2.6 5.2 0.00 0.00 0.00 22 1012.9
20260506200038 80 168 1.7 7.8 0.00 0.00 0.00 24 1012.9
20260506195525 80 238 1.7 7.8 0.00 0.00 0.00 23 1013.1
20260506195025 81 288 0.9 3.5 0.00 0.00 0.00 24 1013.1
20260506194544 79 175 0.9 7.8 0.00 0.00 0.00 24 1013.1
20260506194027 78 134 1.7 8.7 0.00 0.00 0.00 24 1013.2
20260506193524 78 298 3.5 8.7 0.00 0.00 0.00 25 1013.2
20260506193045 79 278 2.6 7.8 0.00 0.00 0.00 24 1013.3
20260506192524 79 331 1.7 6.1 0.00 0.00 0.00 25 1013.4
20260506192024 78 0 1.7 7.8 0.00 0.00 0.00 25 1013.4
20260506191539 77 120 0.9 8.7 0.00 0.00 0.00 26 1013.5
20260506191025 77 315 1.7 8.7 0.00 0.00 0.00 25 1013.5
20260506190525 77 323 4.3 9.6 0.00 0.00 0.00 25 1013.5
20260506190039 77 298 2.6 9.6 0.00 0.00 0.00 25 1013.5
20260506185524 77 328 1.7 8.7 0.00 0.00 0.00 25 1013.6
20260506185025 78 325 2.6 6.1 0.00 0.00 0.00 26 1013.6
20260506184544 78 26 1.7 6.1 0.00 0.00 0.00 25 1013.7
20260506184027 77 188 1.7 7.0 0.00 0.00 0.00 27 1013.9
20260506183527 78 331 2.6 9.6 0.00 0.00 0.00 27 1014.0
20260506183042 77 167 3.5 10.4 0.00 0.00 0.00 27 1014.0
20260506182524 78 183 5.2 10.4 0.00 0.00 0.00 27 1014.1